Regional Weather Roundup
Issued by NWS Mobile, AL

Home | Current Version | Previous Version | Text Only | Print | Product List | Glossary On
Versions: 1 2 3 4 5 6 7 8 9 10 11 12 13 14 15 16 17 18 19 20 21 22 23 24 25 26 27 28 29 30 31 32 33 34 35 36 37 38 39 40 41 42 43 44 45 46 47 48 49 50
000
ASUS44 KMOB 091012
RWRMOB
REGIONAL WEATHER ROUNDUP
NATIONAL WEATHER SERVICE MOBILE AL
400 AM CST TUE FEB 09 2016

NOTE: "FAIR" INDICATES FEW OR NO CLOUDS BELOW 12,000 FEET WITH NO
      SIGNIFICANT WEATHER AND/OR OBSTRUCTIONS TO VISIBILITY.

  * THESE STATIONS ARE PART OF THE UNIVERSITY OF SOUTH ALABAMA
    MESONET AND ARE NOT UNDER NWS OR FAA QUALITY CONTROL.

ALZ061>064-091100-
COASTAL ALABAMA

CITY           SKY/WX    TMP DP  RH WIND       PRES   REMARKS
MOBILE REG APT CLEAR     32  23  69 W3        30.05S
BROOKLEY FIELD CLEAR     35  23  61 SW5       30.07S WCI  31
USA CAMPUS*    NOT AVBL
DOG RIVER*     NOT AVBL


CITY           SKY/WX    TMP DP  RH WIND       PRES   REMARKS
MOUNT VERNON*  NOT AVBL
SARALAND*      NOT AVBL
BAY MINETTE*   NOT AVBL
LOXLEY*        NOT AVBL
ROBERTSDALE*   NOT AVBL
FAIRHOPE*      NOT AVBL
ELBERTA*       NOT AVBL
FOLEY*         NOT AVBL
GRAND BAY*     NOT AVBL
DAUPHIN ISLND* NOT AVBL
BON SCOUR NWR* NOT AVBL
GULF SHORES    CLEAR     32  27  83 CALM      30.06R

$$

ALZ051>060-091100-
INTERIOR SOUTHWEST AND SOUTH CENTRAL ALABAMA

CITY           SKY/WX    TMP DP  RH WIND       PRES   REMARKS
GREENVILLE     NOT AVBL
EVERGREEN      CLEAR     36  20  52 W6        30.00S
CASTLEBERRY*   NOT AVBL
ATMORE*        NOT AVBL
DIXIE*         NOT AVBL
ANDALUSIA/OPP  CLEAR     39  20  46 W10       29.98
ANDALUSIA*     NOT AVBL
FLORALA APT    CLEAR     34  22  61 CALM      30.01R
FLORALA*       NOT AVBL

$$

FLZ001>006-091100-
WESTERN FLORIDA PANHANDLE

CITY           SKY/WX    TMP DP  RH WIND       PRES   REMARKS
PENSACOLA      CLEAR     39  22  50 W9        30.04S
NAS PENSACOLA  NOT AVBL
MILTON         CLEAR     32  22  66 W6        30.03R WCI  26
WHTNG S FIELD  CLEAR     37  21  52 CALM      30.03


CITY           SKY/WX    TMP DP  RH WIND       PRES   REMARKS
WALNUT HILL*   NOT AVBL
JAY*           NOT AVBL
DUKE FIELD     CLEAR     36  20  53 W5        30.01R
CRESTVIEW      PTCLDY    34  23  64 W6        30.03S WCI  29
VALPARAISO     CLEAR     36  22  56 W6        30.02R
DESTIN         CLEAR     45  20  36 VRB6      30.03S

$$

MSZ076-079-091100-
INTERIOR SOUTHEAST MISSISSIPPI

CITY           SKY/WX    TMP DP  RH WIND       PRES   REMARKS
LEAKESVILLE*   NOT AVBL
AGRICOLA*      NOT AVBL

$$

MARINE OBSERVATIONS

STATION/POSITION TIME  TEMP    WIND        PRES    WAVE
                       AIR SEA DIR/SP/G            HT/PER
                 (UTC) (F)     (DEG/KT/KT) (MB)    (FT/S)
PASCAGOULA       0900   42     300/  7/ 11 1017.9F
PETIT BOIS ISLND 0900   47     300/ 17/ 20 1018.7F
KATRINA CUT      0900   46     300/ 13       N/A
CEDAR POINT      0900   44     300/ 12     1017.3S
E DAUPHIN ISLAND 1000   45     280/  8/ 10 1017.9F
MIDDLE BAY LIGHT 0900          280/ 14     1016.9F
USCG MOBILE BAY  0900   37 54  270/  2/  3 1018.1F
STATE DOCKS      0900   38 53              1017.3F
MEAHER PARK      0900   42     300/  6     1017.6F
WEEKS BAY        0800   42                   N/A
FORT MORGAN      0900   45     310/ 13/ 16 1017.4R
12 S ORANGE BCH  0950   49 63  290/ 17/ 23 1017.1F   3/ 5
PENSACOLA BAY    0900   44 54  270/  4/  5 1017.6S

$$

SELECTED LOCATIONS ACROSS THE REGION

CITY           SKY/WX    TMP DP  RH WIND       PRES   REMARKS
NEW ORLEANS    PTCLDY    44  19  36 W13       30.12S
GULFPORT       CLEAR     37  19  48 W6        30.08R
PASCAGOULA AP  CLEAR     30  27  88 W3        30.07S
PASCAGOULA*    NOT AVBL
HATTIESBURG    CLEAR     35  20  54 W6        30.06S WCI  30
LAUREL         CLEAR     34  19  55 W5        30.04S WCI  30
MERIDIAN       PTCLDY    30  21  69 SW6       30.01R WCI  24
JACKSON        PTCLDY    37  19  48 NW9       30.04R
MONTGOMERY     CLOUDY    38  22  52 W10       29.95R
TROY           MOCLDY    36  22  56 W6        29.96R
KINSTON*       NOT AVBL
GENEVA*        NOT AVBL
ASHFORD*       NOT AVBL
DOTHAN         CLEAR     36  22  56 W9        29.98R
PANAMA CITY    CLEAR     37  24  59 SW6       30.02R

$$




USA.gov is the U.S. government's official web portal to all federal, state and local government web resources and services.